Regional Weather Roundup
Issued by NWS Burlington, VT

Current Version | Previous Version | Text Only | Print | Product List | Glossary On
Versions: 1 2 3 4 5 6 7 8 9 10 11 12 13 14 15 16 17 18 19 20 21 22 23 24 25 26 27 28 29 30 31 32 33 34 35 36 37 38 39 40 41 42 43 44 45 46 47 48 49 50
630
ASUS41 KBTV 172110
RWRBTV
VERMONT REGIONAL WEATHER ROUNDUP
NATIONAL WEATHER SERVICE BURLINGTON VT
400 PM EST THU JAN 17 2019

NOTE: "FAIR" INDICATES FEW OR NO CLOUDS BELOW 12,000 FEET WITH NO
SIGNIFICANT WEATHER AND/OR OBSTRUCTIONS TO VISIBILITY.

* THESE REPORTS ARE NOT UNDER NWS QUALITY CONTROL AND/OR DO NOT
  REPORT WEATHER SUCH AS PRECIPITATION AND FOG.

VTZ001>019-172200-
_____VERMONT_____


CITY           SKY/WX    TMP DP  RH WIND       PRES   REMARKS
BURLINGTON     MOCLDY    14  -4  44 CALM      30.32F
MONTPELIER     FAIR      12  -6  44 CALM      30.28F
MORRISVILLE    FAIR      11  -5  48 NW3       30.29F
ST. JOHNSBURY*   N/A     13  -8  39 MISG      30.28F
LYNDONVILLE*   FAIR      10  -8  44 CALM      30.26F
MIDDLEBURY*    FAIR      13  -4  45 CALM      30.30F
RUTLAND*       FAIR      16  -2  45 NW3       30.28F
SPRINGFIELD    FAIR      19  -1  41 E3        30.29F
HIGHGATE*      FAIR       5  -6  59 CALM      30.35F
NEWPORT*       FAIR       5  -9  53 N5        30.28F WCI  -4
BENNINGTON     FAIR      21  -4  33 CALM      30.26F
LAKE EDEN*       N/A     10 N/A N/A SW3         N/A

_____LAKE CHAMPLAIN_____


CITY           SKY/WX    TMP DP  RH WIND       PRES   REMARKS

$$

NYZ007-026>031-035-052-083-087-172200-
_____NORTHERN NEW YORK_____


CITY           SKY/WX    TMP DP  RH WIND       PRES   REMARKS
PLATTSBURGH    FAIR      12   4  70 N9        30.33F WCI   0
SARANAC LAKE   FAIR      11  -3  53 CALM      30.15F
MASSENA        FAIR      11  -6  46 NE3       30.32F
OGDENSBURG*    FAIR      12  -9  37 CALM      30.27F
POTSDAM*       FAIR      10 -11  37 CALM      30.27F
WATERTOWN      FAIR      16   5  62 NE7       30.27F WCI   6
FT DRUM        CLOUDY    14   0  52 NE3       30.23F
ALBANY         MOCLDY    23  -4  30 E3        30.32F
GLENS FALLS    FAIR      19  -3  38 NE5       30.32F WCI  12

$$
NHZ002-005-011-172200-
_____NEW HAMPSHIRE_____


CITY           SKY/WX    TMP DP  RH WIND       PRES   REMARKS
LEBANON        FAIR      16  -3  43 NE5       30.30F WCI   9
KEENE          FAIR      24  -4  29 CALM      30.29F
MT WASHINGTON  PTCLDY    -2 -22  38 W36         N/A  WCI -31
PLYMOUTH       FAIR      16  -8  33 W7        30.31S WCI   6
WHITEFIELD     FAIR      12  -9  38 CALM      30.26F

$$

_____REGIONAL QUEBEC LOCATIONS_____


CITY           SKY/WX    TMP DP  RH WIND       PRES   REMARKS
MONTREAL       PTCLDY     5 -11  47 VRB2      30.35F
QUEBEC CITY    PTCLDY    -4 -17  54 W6        30.34F WCI -16
SHERBROOKE     PTCLDY     5  -9  51 S3        30.29F

_____REGIONAL ONTARIO LOCATIONS_____


CITY           SKY/WX    TMP DP  RH WIND       PRES   REMARKS
OTTAWA         MOCLDY     5  -6  61 SE7       30.29F WCI  -7

______KEY______
VSB  - VISIBILITY IN MILES
WCI  - WIND CHILL INDEX
HX   - HEAT INDEX
$$
NNNN




USA.gov is the U.S. government's official web portal to all federal, state and local government web resources and services.